DECAYED

OBJECT A, 44486 (Decayed)

Orbit data source: Space-Track

You're viewing an Uncataloged Satellite

Recently launched and/or uncataloged satellites may have evolving metadata. Metadata may include but not limited to: Owner, Maufacturer, Bus, Motor, and Mission.

OBJECT A, 44486 was a satellite owned by Qiandao Tansuo (CN) in LEO that was launched on Sat, 17 Aug 2019 UTC via a JIELONG-1 launch vehicle from the Jiuquan Satellite Launch Center, China (JSC). Unknown objects in Earth's orbit typically refer to objects detected orbiting the Earth but have not yet been identified or cataloged. These objects could be anything from previously untracked satellites, spent rocket stages, debris from satellite collisions, or even natural meteoroids temporarily captured by Earth's gravity. This object's orbit decayed before it could be identified.

Not visible in the next 10 days
Identifier
44486, 2019-052A
Orbit
Decayed
Country
Flag of CNCN / PRC
Related business
Flag of CNBeijing Qiansheng Exploration Tech Co Ltd. (CN)
Manufacturer
Qiandao Tansuo
Mission
Decayed Commercial Imaging
Bus & Motor
QS1, Unknown motor
Mass
65 kg wet, 65 kg dry
Launch date (UTC)
2019-08-17 (7 years ago)
Launch vehicle
JIELONG-1
Launch site
Jiuquan Satellite Launch Center, China (JSC)
Object type
Unknown
Shape & HBR
Box, 0.3 m
Radar Cross Section
0.375 m², Medium (>0.1 m² and < 1m²)

Expand to show TLE details & history
Last TLE update: 11 months ago

TLE from 11 months ago
0 OBJECT A
1 44486U 19052A   25217.72411156  .11675024  25281-5  39605-3 0  9992
2 44486  97.3393 302.1541 0015970 267.8008  92.1465 16.42955945330914
Epoch: 2025-08-05T17:22Z
TLE epoch observation values (Epoch: 2025-08-05T17:22:43.238Z)
Latitude
0.00001°
Longitude
86.96082°
Altitude
161.616 km
Speed
7.809 km/s
True Right ascension
20h 08m 36s
True Declination
0° 00' 00"
Sunlit
Object was in full shadow at epoch
Visualization orbit readout
Latitude
Unknown
Longitude
Unknown
Altitude
Unknown
Speed
Unknown
Apparent Right ascension
Unknown
Apparent Declination
Unknown
Sunlit
N/A
Visualization observer readout
Local Sidereal Time
23:18:46
Azimuth
Unknown
Elevation
Unknown
Doppler factor
Unknown
Orbital elements
Apogee altitude
165.185 km
Perigee altitude
144.319 km
Semi-major axis
6,532.889 km
Eccentricity
0.0016
Inclination
97.3393°
RAAN
302.1541°
Arg. of periapsis
267.8008°
True anomaly
92.32936°
Mean anomaly
92.1465°
Eccentric anomaly
92.23793°
Mean motion
4.11041 °/min
Orbital period
87.58 mins
BSTAR
0.00039605
Loading maneuver chart data...
Computing Atmospheric mass density...
Loading historical data...
Loading historical data...
Loading historical data...
Loading historical data...
Loading historical data...
Loading historical data...
Loading historical data...
Other satellites on launch #52 in the year 2019 (2019-08-17 UTC)

Documentation

Showing up to 5 results
|